Kalamazoo, MI

3:44 PM EDT on June 26, 2017 (GMT -0400)
Kalamazoo-Battle Creek International

Weather History for KAZO - December, 2013

Change the Weather History Date:

Monday, December 9, 2013

  Actual Average Record
Temperature  
Mean Temperature 22 °F 31 °F  
Max Temperature 27 °F 37 °F 68 °F (1966)
Min Temperature 17 °F 25 °F 1 °F (2002)
Degree Days  
Heating Degree Days 43 34  
Month to date heating degree days 301 295  
Since 1 July heating degree days 1658 1622  
Cooling Degree Days 0 0  
Month to date cooling degree days 0 0  
Year to date cooling degree days 725 675  
Moisture  
Dew Point 19 °F    
Average Humidity 73    
Maximum Humidity 84    
Minimum Humidity 62    
Precipitation  
Precipitation T in 0.07 in 0.44 in (2008)
Month to date precipitation 0.19 0.71  
Year to date precipitation 38.16 34.47  
Sea Level Pressure  
Sea Level Pressure 30.00 in    
Wind  
Wind Speed 13 mph (SW)    
Max Wind Speed 22 mph    
Max Gust Speed 28 mph    
Visibility 5 miles    
Events Rain , Snow    
T = Trace of Precipitation, MM = Missing Value Source: NWS Daily Summary

Daily Weather History Graph

Daily Weather History Graph

Search for Another Location

Airport or City:

Trip Planner

Search our weather history database for the weather conditions in past years. The results will help you decide how hot, cold, wet, or windy it might be!

Date:

Astronomy

Dec. 09, 2013 Rise Set
Actual Time 7:59 AM EST 5:09 PM EST
Civil Twilight 7:27 AM EST 5:41 PM EST
Nautical Twilight 6:52 AM EST 6:16 PM EST
Astronomical Twilight 6:18 AM EST 6:50 PM EST
Moon 12:45 PM EST (12/9) 12:04 AM EST (12/9)
Length of Visible Light 10h 13m
Length of Day
9h 10m
Waxing Crescent, 51% of the Moon is Illuminated
Dec 9
Waxing Crescent
Dec 17
Full
Dec 25
Last Quarter
Jan 1
New
Jan 7
First Quarter

Hourly Weather History & Observations

Time (EST) Temp. Windchill Dew Point Humidity Pressure Visibility Wind Dir Wind Speed Gust Speed Precip Events Conditions
12:12 AM 26.6 °F 21.2 °F 23.0 °F 86% 29.93 in 2.5 mi SSE 4.6 mph - 0.01 in Snow Light Snow
12:19 AM 26.6 °F 21.2 °F 23.0 °F 86% 29.93 in 3.0 mi SSE 4.6 mph - 0.01 in Snow Light Snow
12:53 AM 26.1 °F 19.4 °F 23.0 °F 88% 29.94 in 4.0 mi South 5.8 mph - 0.01 in Snow Light Snow
1:08 AM 26.6 °F 19.1 °F 23.0 °F 86% 29.90 in 3.0 mi South 6.9 mph - 0.00 in Snow Light Snow
1:16 AM 26.6 °F 16.8 °F 23.0 °F 86% 29.89 in 2.5 mi South 10.4 mph - 0.00 in Snow Light Snow
1:36 AM 26.6 °F 16.8 °F 23.0 °F 86% 29.89 in 3.0 mi South 10.4 mph - 0.00 in Snow Light Snow
1:44 AM 26.6 °F 16.2 °F 23.0 °F 86% 29.89 in 4.0 mi South 11.5 mph - 0.00 in   Overcast
1:53 AM 26.1 °F 15.6 °F 23.0 °F 88% 29.92 in 5.0 mi South 11.5 mph - 0.00 in   Overcast
2:06 AM 26.6 °F 16.8 °F 23.0 °F 86% 29.88 in 6.0 mi SSW 10.4 mph - N/A   Overcast
2:13 AM 26.6 °F 17.5 °F 23.0 °F 86% 29.88 in 7.0 mi SSW 9.2 mph - N/A   Overcast
2:53 AM 27.0 °F 18.0 °F 23.0 °F 85% 29.93 in 8.0 mi SW 9.2 mph - N/A   Overcast
3:53 AM 27.0 °F 16.7 °F 23.0 °F 85% 29.93 in 9.0 mi SW 11.5 mph - N/A   Overcast
4:53 AM 27.0 °F 17.3 °F 23.0 °F 85% 29.92 in 9.0 mi SW 10.4 mph - N/A   Overcast
5:53 AM 27.0 °F 16.1 °F 23.0 °F 85% 29.93 in 6.0 mi SW 12.7 mph - N/A   Overcast
6:01 AM 26.6 °F 17.5 °F 23.0 °F 86% 29.89 in 5.0 mi SW 9.2 mph - 0.00 in Rain Light Freezing Rain
6:53 AM 27.0 °F 16.7 °F 24.1 °F 89% 29.94 in 6.0 mi SW 11.5 mph - 0.00 in Rain Light Freezing Rain
7:14 AM 26.6 °F 16.8 °F 23.0 °F 86% 29.91 in 6.0 mi WSW 10.4 mph 20.7 mph 0.00 in Rain Light Freezing Rain
7:22 AM 26.6 °F 14.3 °F 23.0 °F 86% 29.91 in 6.0 mi WSW 16.1 mph 21.9 mph 0.00 in Rain Light Freezing Rain
7:53 AM 27.0 °F 16.7 °F 21.9 °F 81% 29.96 in 4.0 mi WSW 11.5 mph - 0.00 in Rain Light Freezing Rain
8:14 AM 26.6 °F 13.8 °F 21.2 °F 80% 29.93 in 4.0 mi WSW 17.3 mph 23.0 mph 0.00 in Snow Light Snow
8:53 AM 27.0 °F 14.3 °F 21.0 °F 78% 29.99 in 3.0 mi WSW 17.3 mph - 0.00 in Snow Light Snow
9:44 AM 26.6 °F 15.2 °F 21.2 °F 80% 29.99 in 1.5 mi WSW 13.8 mph 20.7 mph 0.00 in Snow Light Snow
9:53 AM 26.1 °F 15.6 °F 21.9 °F 84% 30.03 in 1.0 mi WSW 11.5 mph - 0.00 in Snow Light Snow
10:53 AM 26.1 °F 14.0 °F 21.9 °F 84% 30.05 in 1.5 mi West 15.0 mph 20.7 mph 0.00 in Snow Light Snow
11:12 AM 26.6 °F 13.4 °F 21.2 °F 80% 30.01 in 3.0 mi West 18.4 mph 27.6 mph 0.00 in Snow Light Snow
12:04 PM 26.6 °F 17.5 °F 21.2 °F 80% 29.99 in 1.2 mi West 9.2 mph 18.4 mph 0.00 in Snow Light Snow
12:53 PM 25.0 °F 12.2 °F 19.0 °F 78% 30.05 in 1.0 mi WSW 16.1 mph 21.9 mph 0.00 in Snow Light Snow
1:53 PM 24.1 °F 9.8 °F 18.0 °F 77% 30.08 in 1.0 mi WSW 19.6 mph 25.3 mph 0.00 in Snow Light Snow
2:53 PM 23.0 °F 10.1 °F 18.0 °F 81% 30.09 in 1.0 mi WSW 15.0 mph 24.2 mph 0.00 in Snow Light Snow
3:53 PM 21.9 °F 9.2 °F 16.0 °F 78% 30.10 in 1.2 mi WSW 13.8 mph - 0.00 in Snow Light Snow
4:53 PM 21.0 °F 8.1 °F 14.0 °F 74% 30.13 in 1.2 mi SW 13.8 mph - 0.00 in Snow Light Snow
5:53 PM 19.9 °F 7.3 °F 12.9 °F 74% 30.13 in 1.2 mi WSW 12.7 mph 23.0 mph 0.00 in   Haze
6:00 PM 19.4 °F 6.6 °F 12.2 °F 74% 30.08 in 7.0 mi WSW 12.7 mph 19.6 mph N/A   Mostly Cloudy
6:53 PM 21.0 °F 9.9 °F 12.0 °F 68% 30.13 in 10.0 mi WSW 10.4 mph 18.4 mph N/A   Mostly Cloudy
7:53 PM 19.9 °F 6.7 °F 10.9 °F 68% 30.16 in 10.0 mi WSW 13.8 mph 19.6 mph N/A   Overcast
8:53 PM 19.9 °F 4.3 °F 10.0 °F 65% 30.16 in 10.0 mi West 19.6 mph 24.2 mph N/A   Mostly Cloudy
9:53 PM 19.0 °F 7.5 °F 9.0 °F 65% 30.15 in 10.0 mi West 10.4 mph 26.5 mph 0.00 in   Overcast
10:53 PM 18.0 °F 3.6 °F 9.0 °F 68% 30.16 in 10.0 mi West 15.0 mph - N/A   Overcast
11:53 PM 17.1 °F 5.8 °F 9.0 °F 71% 30.16 in 9.0 mi West 9.2 mph - 0.00 in Snow Light Snow